Buckhannon, WV

5:43 AM EDT on June 23, 2017 (GMT -0400)
Buckhannon

Weather History for KW22 - January, 2013

Change the Weather History Date:

Wednesday, January 23, 2013

  Actual Average (KCKB) Record (KCKB)
Temperature  
Mean Temperature 14 °F -  
Max Temperature 19 °F 40 °F 74 °F (1932)
Min Temperature 8 °F 21 °F -15 °F (1936)
Degree Days  
Heating Degree Days 52    
Moisture  
Dew Point 5 °F    
Average Humidity 68    
Maximum Humidity 100    
Minimum Humidity 39    
Precipitation  
Precipitation 0.65 in - - ()
Sea Level Pressure  
Sea Level Pressure 30.17 in    
Wind  
Wind Speed 6 mph (SW)    
Max Wind Speed 13 mph    
Max Gust Speed 18 mph    
Visibility 8 miles    
Events Snow    
Averages and records for this station are not official NWS values.
T = Trace of Precipitation, MM = Missing Value Source: NWS Daily Summary

Daily Weather History Graph

Daily Weather History Graph

Search for Another Location

Airport or City:

Trip Planner

Search our weather history database for the weather conditions in past years. The results will help you decide how hot, cold, wet, or windy it might be!

Date:

Astronomy

Jan. 23, 2013 Rise Set
Actual Time 7:34 AM EST 5:32 PM EST
Civil Twilight 7:05 AM EST 6:00 PM EST
Nautical Twilight 6:33 AM EST 6:33 PM EST
Astronomical Twilight 6:01 AM EST 7:05 PM EST
Moon 2:41 PM EST 4:44 AM EST
Length of Visible Light 10h 55m
Length of Day
9h 57m
Waxing Gibbous, 89% of the Moon is Illuminated
Jan 23
Waxing Gibbous
Jan 26
Full
Feb 3
Last Quarter
Feb 10
New
Feb 17
First Quarter

Hourly Weather History & Observations

Time (EST) Temp. Windchill Dew Point Humidity Pressure Visibility Wind Dir Wind Speed Gust Speed Precip Events Conditions
12:15 AM 10.4 °F 0.8 °F -0.4 °F 62% 30.23 in 10.0 mi WSW 5.8 mph - N/A   Clear
12:55 AM 10.4 °F 2.2 °F -0.4 °F 62% 30.22 in 10.0 mi WSW 4.6 mph - N/A   Clear
1:15 AM 10.4 °F 0.8 °F -0.4 °F 62% 30.22 in 10.0 mi SW 5.8 mph - N/A   Clear
1:35 AM 10.4 °F 0.8 °F -0.4 °F 62% 30.23 in 10.0 mi WSW 5.8 mph - N/A   Clear
1:55 AM 10.4 °F 0.8 °F -0.4 °F 62% 30.23 in 10.0 mi SW 5.8 mph - N/A   Clear
2:15 AM 10.4 °F 0.8 °F -0.4 °F 62% 30.23 in 10.0 mi SW 5.8 mph - N/A   Clear
2:35 AM 10.4 °F 2.2 °F -0.4 °F 62% 30.24 in 10.0 mi SW 4.6 mph - N/A   Clear
2:55 AM 10.4 °F 0.8 °F -0.4 °F 62% 30.24 in 10.0 mi SW 5.8 mph - N/A   Clear
3:15 AM 10.4 °F 0.8 °F -0.4 °F 62% 30.24 in 10.0 mi WSW 5.8 mph - N/A   Clear
3:55 AM 8.6 °F -1.3 °F -0.4 °F 67% 30.24 in 10.0 mi WSW 5.8 mph - N/A   Clear
4:15 AM 10.4 °F 0.8 °F -0.4 °F 62% 30.24 in 10.0 mi WSW 5.8 mph - N/A   Clear
4:55 AM 8.6 °F -2.6 °F -0.4 °F 67% 30.24 in 10.0 mi West 6.9 mph - N/A   Clear
5:15 AM 10.4 °F 0.8 °F -0.4 °F 62% 30.24 in 10.0 mi WSW 5.8 mph - N/A   Clear
5:35 AM 8.6 °F 0.1 °F -0.4 °F 67% 30.24 in 10.0 mi WSW 4.6 mph - N/A   Clear
5:55 AM 8.6 °F 0.1 °F 1.4 °F 73% 30.24 in 10.0 mi SW 4.6 mph - N/A   Clear
6:15 AM 8.6 °F -1.3 °F 1.4 °F 73% 30.24 in 10.0 mi SW 5.8 mph - N/A   Clear
6:35 AM 8.6 °F -2.6 °F -0.4 °F 67% 30.25 in 10.0 mi WSW 6.9 mph - N/A   Clear
6:55 AM 8.6 °F -1.3 °F -0.4 °F 67% 30.25 in 10.0 mi WSW 5.8 mph - N/A   Clear
7:15 AM 8.6 °F 0.1 °F -0.4 °F 67% 30.25 in 10.0 mi SW 4.6 mph - N/A   Clear
7:35 AM 8.6 °F 0.1 °F -0.4 °F 67% 30.25 in 10.0 mi SW 4.6 mph - N/A   Clear
7:55 AM 8.6 °F 0.1 °F -0.4 °F 67% 30.25 in 10.0 mi SW 4.6 mph - N/A   Clear
8:15 AM 8.6 °F - 1.4 °F 73% 30.25 in 10.0 mi Calm Calm - N/A   Partly Cloudy
8:55 AM 10.4 °F - 1.4 °F 67% 30.26 in 10.0 mi Calm Calm - N/A   Partly Cloudy
9:15 AM 12.2 °F 2.9 °F 1.4 °F 62% 30.26 in 10.0 mi WSW 5.8 mph - N/A   Clear
9:35 AM 14.0 °F 3.9 °F 1.4 °F 57% 30.26 in 10.0 mi West 6.9 mph - N/A   Clear
9:55 AM 12.2 °F 2.9 °F 1.4 °F 62% 30.27 in 10.0 mi West 5.8 mph - N/A   Clear
10:35 AM 14.0 °F 2.9 °F 1.4 °F 57% 30.27 in 10.0 mi West 8.1 mph - N/A   Clear
10:55 AM 14.0 °F 2.0 °F 1.4 °F 57% 30.26 in 10.0 mi WSW 9.2 mph - N/A   Scattered Clouds
11:15 AM 14.0 °F 2.9 °F 1.4 °F 57% 30.25 in 10.0 mi SW 8.1 mph 16.1 mph N/A   Scattered Clouds
11:35 AM 14.0 °F 2.0 °F 1.4 °F 57% 30.24 in 10.0 mi SW 9.2 mph - N/A   Scattered Clouds
11:55 AM 14.0 °F 5.1 °F 1.4 °F 57% 30.23 in 10.0 mi SW 5.8 mph - N/A   Scattered Clouds
12:15 PM 15.8 °F 2.1 °F 1.4 °F 53% 30.21 in 10.0 mi WSW 12.7 mph 18.4 mph N/A   Partly Cloudy
12:55 PM 17.6 °F 5.7 °F 1.4 °F 49% 30.19 in 10.0 mi SW 10.4 mph - N/A   Scattered Clouds
1:15 PM 17.6 °F 4.3 °F -0.4 °F 45% 30.18 in 10.0 mi SW 12.7 mph 17.3 mph N/A   Scattered Clouds
1:35 PM 17.6 °F 4.3 °F -0.4 °F 45% 30.17 in 10.0 mi WSW 12.7 mph 18.4 mph N/A   Scattered Clouds
1:55 PM 19.4 °F 10.4 °F 1.4 °F 46% 30.16 in 10.0 mi SW 6.9 mph - N/A   Partly Cloudy
2:15 PM 19.4 °F 8.6 °F 1.4 °F 46% 30.15 in 10.0 mi SW 9.2 mph - N/A   Scattered Clouds
2:55 PM 19.4 °F 7.9 °F -0.4 °F 42% 30.15 in 10.0 mi WSW 10.4 mph - N/A   Mostly Cloudy
3:15 PM 19.4 °F 8.6 °F -0.4 °F 42% 30.14 in 10.0 mi WSW 9.2 mph - N/A   Partly Cloudy
3:35 PM 19.4 °F 8.6 °F -0.4 °F 42% 30.14 in 10.0 mi SW 9.2 mph - N/A   Partly Cloudy
3:55 PM 19.4 °F 7.2 °F -2.2 °F 39% 30.14 in 10.0 mi WSW 11.5 mph 18.4 mph N/A   Partly Cloudy
5:35 PM 19.4 °F 6.6 °F 3.2 °F 49% 30.11 in 10.0 mi SW 12.7 mph - N/A Snow Light Snow
5:55 PM 19.4 °F 7.9 °F 5.0 °F 54% 30.10 in 5.0 mi SW 10.4 mph - N/A Snow Light Snow
6:15 PM 19.4 °F 11.5 °F 6.8 °F 58% 30.09 in 5.0 mi SW 5.8 mph - N/A Snow Light Snow
6:55 PM 17.6 °F 10.7 °F 10.4 °F 73% 30.08 in 4.0 mi SW 4.6 mph - 0.02 in Snow Light Snow
7:15 PM 17.6 °F 10.7 °F 12.2 °F 79% 30.08 in 2.5 mi WSW 4.6 mph - 0.02 in Snow Light Snow
7:35 PM 17.6 °F 12.3 °F 14.0 °F 86% 30.08 in 2.0 mi WSW 3.5 mph - 0.08 in Snow Light Snow
7:55 PM 17.6 °F 12.3 °F 14.0 °F 86% 30.08 in 2.5 mi SW 3.5 mph - 0.14 in Snow Light Snow
8:15 PM 17.6 °F - 14.0 °F 86% 30.07 in 2.0 mi Calm Calm - 0.06 in Snow Light Snow
8:35 PM 17.6 °F - 15.8 °F 93% 30.07 in 2.0 mi Calm Calm - 0.14 in Snow Light Snow
8:55 PM 17.6 °F - 15.8 °F 93% 30.06 in 2.5 mi Calm Calm - 0.21 in Snow Light Snow
9:15 PM 17.6 °F - 15.8 °F 93% 30.05 in 3.0 mi Calm Calm - 0.02 in Snow Light Snow
9:35 PM 17.6 °F - 15.8 °F 93% 30.04 in 2.0 mi Calm Calm - 0.08 in Snow Light Snow
9:55 PM 17.6 °F - 17.6 °F 100% 30.05 in 2.0 mi Calm Calm - 0.13 in Snow Light Snow
10:15 PM 17.6 °F - 17.6 °F 100% 30.04 in 2.0 mi Calm Calm - 0.03 in Snow Light Snow
10:35 PM 17.6 °F - 17.6 °F 100% 30.04 in 2.5 mi Calm Calm - 0.08 in Snow Light Snow
10:55 PM 17.6 °F - 17.6 °F 100% 30.03 in 3.0 mi Calm Calm - 0.09 in Snow Light Snow
11:15 PM 17.6 °F 12.3 °F 17.6 °F 100% 30.02 in 3.0 mi SSW 3.5 mph - 0.02 in Snow Light Snow
11:35 PM 17.6 °F 10.7 °F 17.6 °F 100% 30.01 in 2.0 mi SSW 4.6 mph - 0.05 in Snow Light Snow
11:55 PM 19.4 °F - 17.6 °F 93% 30.01 in 3.0 mi Calm Calm - 0.06 in Snow Light Snow